User: anonymous   Login
Location: Caltech
(34.1382°N, 118.1253°W)
Time: 15:00:07
(UTC-07:00)
Language:

Iridium 68 - Orbit

View from above orbital plane
View from above orbital plane
View from above satellite
View from above satellite

Ground track
Ground track

The orbit data is extracted from the following two-line orbital elements,

1 25291U 98021G   18115.46572818 -.00000017  00000-0 -13040-4 0  9998
2 25291  86.3931  93.5198 0002214  81.9896 278.1551 14.34214107 49768
Epoch (UTC): 25 April 2018 11:10:38
Eccentricity: 0.0002214
inclination: 86.3931°
perigee height: 776 km
apogee height: 779 km
right ascension of ascending node: 93.5198°
argument of perigee: 81.9896°
revolutions per day: 14.34214107
mean anomaly at epoch: 278.1551°
orbit number at epoch: 4976

The dashed part of the orbit path shows where the satellite is in the earth's shadow,  

DLR